Weather History for Clinton-Sherman, OK

Change the Weather History Date:

Sunday, February 10, 2013

  Actual Average Record
Temperature  
Mean Temperature 46 °F -  
Max Temperature 57 °F 50 °F 75 °F (1999)
Min Temperature 32 °F 30 °F 1 °F (2011)
Degree Days  
Heating Degree Days 20    
Moisture  
Dew Point 27 °F    
Average Humidity 52    
Maximum Humidity 75    
Minimum Humidity 27    
Precipitation  
Precipitation 0.00 in - - ()
Sea Level Pressure  
Sea Level Pressure 29.83 in    
Wind  
Wind Speed 14 mph (WNW)    
Max Wind Speed 18 mph    
Max Gust Speed 23 mph    
Visibility 10 miles    
Events      
Averages and records for this station are not official NWS values.
T = Trace of Precipitation, MM = Missing Value Source: NWS Daily Summary

Daily Weather History Graph

Daily Weather History Graph

Search for Another Location

Airport:

Trip Planner

Search our weather history database for the weather conditions in past years. The results will help you decide how hot, cold, wet, or windy it might be!

Date:

Astronomy

Feb. 10, 2013 Rise Set
Actual Time 7:28 AM CST 6:14 PM CST
Civil Twilight 7:01 AM CST 6:40 PM CST
Nautical Twilight 6:31 AM CST 7:10 PM CST
Astronomical Twilight 6:02 AM CST 7:40 PM CST
Moon 7:21 AM CST (2/10) 7:03 PM CST (2/10)
Length of Visible Light 11h 38m
Length of Day
10h 46m
Waxing Crescent, 0% of the Moon is Illuminated
Feb 10
Waxing Crescent
Feb 17
First Quarter
Feb 25
Full
Mar 4
Last Quarter
Mar 11
New

Hourly Weather History & Observations

Time (CST) Temp. Windchill Dew Point Humidity Pressure Visibility Wind Dir Wind Speed Gust Speed Precip Events Conditions
12:53 AM 50.0 °F - 37.0 °F 61% 29.68 in 10.0 mi WSW 15.0 mph - N/A   Overcast
1:53 AM 46.0 °F 39.9 °F 33.1 °F 61% 29.68 in 10.0 mi SW 13.8 mph - N/A   Overcast
2:53 AM 42.1 °F 34.2 °F 28.9 °F 60% 29.67 in 10.0 mi WSW 16.1 mph - N/A   Partly Cloudy
3:53 AM 39.9 °F 32.5 °F 27.0 °F 60% 29.67 in 10.0 mi SW 12.7 mph - N/A   Clear
4:53 AM 39.9 °F 31.4 °F 25.0 °F 55% 29.68 in 10.0 mi SSW 16.1 mph - N/A   Clear
5:53 AM 37.9 °F 29.2 °F 25.0 °F 60% 29.69 in 10.0 mi SW 15.0 mph - N/A   Clear
6:53 AM 35.1 °F 25.9 °F 26.1 °F 70% 29.72 in 10.0 mi SW 13.8 mph - N/A   Clear
7:53 AM 35.1 °F 26.9 °F 25.0 °F 67% 29.75 in 10.0 mi SW 11.5 mph - N/A   Clear
8:53 AM 39.0 °F 31.4 °F 27.0 °F 62% 29.77 in 10.0 mi WSW 12.7 mph - N/A   Clear
9:53 AM 46.0 °F 39.3 °F 28.9 °F 51% 29.79 in 10.0 mi West 16.1 mph - N/A   Clear
10:53 AM 51.1 °F - 28.0 °F 41% 29.80 in 10.0 mi WNW 17.3 mph 20.7 mph N/A   Clear
11:53 AM 53.1 °F - 30.0 °F 41% 29.80 in 10.0 mi WNW 13.8 mph - N/A   Clear
12:53 PM 55.0 °F - 27.0 °F 34% 29.79 in 10.0 mi NW 15.0 mph 23.0 mph N/A   Clear
1:53 PM 55.9 °F - 27.0 °F 33% 29.80 in 10.0 mi West 15.0 mph - N/A   Clear
2:53 PM 57.0 °F - 24.1 °F 28% 29.81 in 10.0 mi WNW 18.4 mph - N/A   Clear
3:53 PM 57.0 °F - 23.0 °F 27% 29.83 in 10.0 mi NW 15.0 mph 20.7 mph N/A   Clear
4:53 PM 55.0 °F - 21.9 °F 28% 29.87 in 10.0 mi NW 15.0 mph - N/A   Clear
5:53 PM 50.0 °F - 25.0 °F 38% 29.92 in 10.0 mi NNW 10.4 mph - N/A   Clear
6:53 PM 43.0 °F 38.2 °F 25.0 °F 49% 29.97 in 10.0 mi NNW 8.1 mph - N/A   Clear
7:53 PM 41.0 °F 35.8 °F 25.0 °F 53% 30.00 in 10.0 mi North 8.1 mph - N/A   Clear
8:53 PM 37.9 °F 31.5 °F 24.1 °F 57% 30.02 in 10.0 mi North 9.2 mph - N/A   Clear
9:53 PM 36.0 °F 29.0 °F 25.0 °F 64% 30.05 in 10.0 mi North 9.2 mph - N/A   Clear
10:53 PM 34.0 °F 26.0 °F 25.0 °F 70% 30.06 in 10.0 mi North 10.4 mph - N/A   Clear
11:53 PM 32.0 °F 23.0 °F 25.0 °F 75% 30.07 in 10.0 mi North 11.5 mph - N/A   Clear